Weather History for KSTP - August, 2013

Change the Weather History Date:

Thursday, August 22, 2013

  Actual Average Record
Temperature  
Mean Temperature 76 °F -  
Max Temperature 87 °F 78 °F 90 °F (2008)
Min Temperature 68 °F 58 °F 53 °F (1997)
Cooling Degree Days 11    
Growing Degree Days 26 (Base 50)    
Moisture  
Dew Point 52 °F    
Average Humidity 45    
Maximum Humidity 71    
Minimum Humidity 27    
Precipitation  
Precipitation 0.00 in - - ()
Sea Level Pressure  
Sea Level Pressure 30.08 in    
Wind  
Wind Speed 5 mph (NNE)    
Max Wind Speed 10 mph    
Max Gust Speed 18 mph    
Visibility 10 miles    
Events      
Averages and records for this station are not official NWS values.
T = Trace of Precipitation, MM = Missing Value Source: NWS Daily Summary

Daily Weather History Graph

Daily Weather History Graph

Search for Another Location

Airport or City:

Trip Planner

Search our weather history database for the weather conditions in past years. The results will help you decide how hot, cold, wet, or windy it might be!

Date:

Astronomy

Aug. 22, 2013 Rise Set
Actual Time 6:22 AM CDT 8:06 PM CDT
Civil Twilight 5:51 AM CDT 8:37 PM CDT
Nautical Twilight 5:13 AM CDT 9:15 PM CDT
Astronomical Twilight 4:32 AM CDT 9:56 PM CDT
Moon 8:41 PM CDT (8/22) 8:19 AM CDT (8/22)
Length of Visible Light 14h 45m
Length of Day
13h 43m
Waning Gibbous, 96% of the Moon is Illuminated
Aug 22
Waning Gibbous
Aug 28
Last Quarter
Sep 5
New
Sep 12
First Quarter
Sep 19
Full

Hourly Weather History & Observations

Time (CDT) Temp. Dew Point Humidity Pressure Visibility Wind Dir Wind Speed Gust Speed Precip Events Conditions
12:53 AM 73.0 °F 63.0 °F 71% 30.01 in 10.0 mi Calm Calm - N/A   Clear
1:53 AM 73.0 °F 62.1 °F 68% 30.02 in 10.0 mi Calm Calm - N/A   Clear
2:53 AM 72.0 °F 60.1 °F 66% 30.01 in 10.0 mi North 6.9 mph - N/A   Clear
3:53 AM 72.0 °F 57.9 °F 61% 30.04 in 10.0 mi NNE 5.8 mph - N/A   Mostly Cloudy
4:53 AM 71.1 °F 54.0 °F 55% 30.05 in 10.0 mi Variable 4.6 mph - N/A   Clear
5:53 AM 70.0 °F 53.1 °F 55% 30.06 in 10.0 mi North 8.1 mph - N/A   Clear
6:53 AM 69.1 °F 52.0 °F 54% 30.07 in 10.0 mi NNE 10.4 mph 18.4 mph N/A   Clear
7:53 AM 68.0 °F 53.1 °F 59% 30.11 in 10.0 mi Variable 5.8 mph - N/A   Clear
8:53 AM 70.0 °F 53.1 °F 55% 30.11 in 10.0 mi NE 6.9 mph - N/A   Clear
9:53 AM 75.0 °F 51.1 °F 43% 30.10 in 10.0 mi ENE 9.2 mph - N/A   Clear
10:53 AM 77.0 °F 51.1 °F 40% 30.10 in 10.0 mi NE 9.2 mph 18.4 mph N/A   Clear
11:53 AM 81.0 °F 48.9 °F 33% 30.10 in 10.0 mi NNE 10.4 mph - N/A   Clear
12:53 PM 82.9 °F 48.9 °F 31% 30.09 in 10.0 mi Variable 6.9 mph - N/A   Clear
1:53 PM 82.9 °F 48.9 °F 31% 30.09 in 10.0 mi NE 8.1 mph - N/A   Clear
2:53 PM 84.9 °F 50.0 °F 30% 30.08 in 10.0 mi NNE 9.2 mph - N/A   Clear
3:53 PM 84.9 °F 50.0 °F 30% 30.07 in 10.0 mi NE 5.8 mph - N/A   Clear
4:53 PM 84.9 °F 46.9 °F 27% 30.07 in 10.0 mi NNW 8.1 mph - N/A   Clear
5:53 PM 84.0 °F 46.9 °F 27% 30.07 in 10.0 mi NNW 5.8 mph - N/A   Clear
6:53 PM 82.9 °F 46.9 °F 28% 30.07 in 10.0 mi North 6.9 mph - N/A   Clear
7:53 PM 80.1 °F 50.0 °F 35% 30.07 in 10.0 mi North 6.9 mph - N/A   Clear
8:53 PM 77.0 °F 51.1 °F 40% 30.09 in 10.0 mi North 6.9 mph - N/A   Clear
9:53 PM 73.9 °F 52.0 °F 46% 30.10 in 10.0 mi Calm Calm - N/A   Clear
10:53 PM 72.0 °F 51.1 °F 48% 30.11 in 10.0 mi Calm Calm - N/A   Clear
11:53 PM 71.1 °F 48.9 °F 45% 30.12 in 10.0 mi Calm Calm - N/A   Clear